Weather History for Birmingham, AL

Change the Weather History Date:

Thursday, October 31, 2013

  Actual Average Record
Temperature  
Mean Temperature 70 °F 59 °F  
Max Temperature 76 °F 71 °F 87 °F (1984)
Min Temperature 64 °F 48 °F 29 °F (1917)
Degree Days  
Heating Degree Days 0 7  
Month to date heating degree days 97 118  
Since 1 July heating degree days 97 127  
Cooling Degree Days 5 1  
Month to date cooling degree days 109 90  
Year to date cooling degree days 1952 2040  
Growing Degree Days 20 (Base 50)    
Moisture  
Dew Point 62 °F    
Average Humidity 77    
Maximum Humidity 90    
Minimum Humidity 63    
Precipitation  
Precipitation 0.44 in 0.12 in 2.06 in (1941)
Month to date precipitation 1.96 3.44  
Year to date precipitation 56.69 44.42  
Snow  
Snow 0.00 in 0.00 in - ()
Month to date snowfall 0.0 0.0  
Since 1 July snowfall 0.0 0.0  
Since 1 September snowfall 0.0 0.0  
Snow Depth 0.00 in    
Sea Level Pressure  
Sea Level Pressure 29.94 in    
Wind  
Wind Speed 10 mph (SSE)    
Max Wind Speed 25 mph    
Max Gust Speed 33 mph    
Visibility 9 miles    
Events Rain    
T = Trace of Precipitation, MM = Missing Value Source: NWS Daily Summary

Daily Weather History Graph

Daily Weather History Graph

Search for Another Location

Airport:

Trip Planner

Search our weather history database for the weather conditions in past years. The results will help you decide how hot, cold, wet, or windy it might be!

Date:

Astronomy

Oct. 31, 2013 Rise Set
Actual Time 7:05 AM CDT 5:55 PM CDT
Civil Twilight 6:39 AM CDT 6:21 PM CDT
Nautical Twilight 6:10 AM CDT 6:50 PM CDT
Astronomical Twilight 5:41 AM CDT 7:19 PM CDT
Moon 4:02 AM CDT (10/31) 4:06 PM CDT (10/31)
Length of Visible Light 11h 41m
Length of Day
10h 50m
Waning Crescent, 10% of the Moon is Illuminated
Oct 31
Waning Crescent
Nov 3
New
Nov 9
First Quarter
Nov 17
Full
Nov 25
Last Quarter

Hourly Weather History & Observations

Time (CDT) Temp. Dew Point Humidity Pressure Visibility Wind Dir Wind Speed Gust Speed Precip Events Conditions
12:53 AM 66.9 °F 54.0 °F 63% 30.10 in 10.0 mi SSE 5.8 mph - N/A   Overcast
1:53 AM 66.9 °F 53.1 °F 61% 30.08 in 10.0 mi SE 5.8 mph - N/A   Overcast
2:53 AM 66.0 °F 53.1 °F 63% 30.07 in 10.0 mi SSE 5.8 mph - N/A   Overcast
3:53 AM 64.9 °F 53.1 °F 65% 30.06 in 10.0 mi SE 5.8 mph - N/A   Overcast
4:53 AM 64.9 °F 55.0 °F 70% 30.06 in 10.0 mi SSE 5.8 mph - N/A   Overcast
5:53 AM 64.9 °F 57.0 °F 75% 30.05 in 10.0 mi SE 6.9 mph - N/A   Overcast
6:53 AM 64.9 °F 57.9 °F 78% 30.03 in 10.0 mi SSE 8.1 mph - N/A   Overcast
7:53 AM 64.9 °F 57.0 °F 75% 30.02 in 10.0 mi SSE 9.2 mph 16.1 mph N/A   Overcast
8:53 AM 64.9 °F 59.0 °F 81% 30.03 in 10.0 mi SSE 12.7 mph 19.6 mph N/A   Overcast
9:53 AM 66.0 °F 61.0 °F 84% 30.02 in 10.0 mi South 12.7 mph 24.2 mph N/A   Overcast
9:57 AM 66.2 °F 60.8 °F 83% 30.04 in 10.0 mi South 12.7 mph 24.2 mph N/A   Overcast
10:53 AM 68.0 °F 62.1 °F 81% 30.02 in 10.0 mi SSE 11.5 mph 19.6 mph N/A   Overcast
11:18 AM 68.0 °F 62.6 °F 83% 30.02 in 10.0 mi SSE 9.2 mph 20.7 mph N/A   Overcast
11:53 AM 69.1 °F 63.0 °F 81% 29.99 in 10.0 mi South 10.4 mph - N/A   Overcast
12:53 PM 71.1 °F 63.0 °F 75% 29.96 in 10.0 mi SSE 10.4 mph - N/A   Overcast
1:53 PM 73.0 °F 64.0 °F 73% 29.91 in 10.0 mi SSE 10.4 mph - N/A   Mostly Cloudy
2:06 PM 73.4 °F 64.4 °F 73% 29.92 in 10.0 mi South 12.7 mph - N/A   Mostly Cloudy
2:53 PM 75.0 °F 63.0 °F 66% 29.88 in 10.0 mi South 12.7 mph - N/A   Overcast
3:53 PM 75.0 °F 64.0 °F 69% 29.87 in 10.0 mi South 9.2 mph - N/A   Overcast
4:46 PM 73.4 °F 64.4 °F 73% 29.88 in 10.0 mi South 10.4 mph - N/A   Overcast
4:53 PM 73.9 °F 64.9 °F 73% 29.86 in 10.0 mi South 12.7 mph - N/A   Overcast
5:53 PM 73.0 °F 64.9 °F 76% 29.85 in 10.0 mi South 9.2 mph - N/A   Mostly Cloudy
6:53 PM 72.0 °F 66.0 °F 81% 29.86 in 10.0 mi SSE 6.9 mph - 0.00 in   Overcast
7:53 PM 71.1 °F 66.9 °F 87% 29.86 in 10.0 mi South 8.1 mph - 0.01 in Rain Light Rain
8:41 PM 69.8 °F 66.2 °F 88% 29.87 in 4.0 mi SSW 19.6 mph 31.1 mph 0.09 in Rain Light Rain
8:49 PM 69.8 °F 66.2 °F 88% 29.86 in 8.0 mi South 20.7 mph 31.1 mph 0.09 in Rain Light Rain
8:53 PM 70.0 °F 66.0 °F 87% 29.84 in 8.0 mi South 17.3 mph 29.9 mph 0.09 in Rain Light Rain
9:53 PM 70.0 °F 64.9 °F 84% 29.81 in 10.0 mi South 17.3 mph 27.6 mph 0.04 in   Overcast
10:53 PM 69.1 °F 64.9 °F 87% 29.79 in 7.0 mi South 11.5 mph 19.6 mph 0.02 in Rain Light Rain
11:25 PM 69.8 °F 66.2 °F 88% 29.81 in 8.0 mi South 23.0 mph 33.4 mph 0.00 in Rain Light Rain
11:53 PM 69.1 °F 66.0 °F 90% 29.78 in 6.0 mi SSW 13.8 mph 21.9 mph 0.03 in Rain Light Rain